Location: Unspecified
(33.6682°S, 0.0000°E)
Time: 23:53:06
(UTC+00:00)

Tiros 1 despin weight - Pass Details

Date: 21 June 2019
Orbit: 594 x 642 km, 48.2° (Epoch: 20 July)

Event Time Altitude Azimuth Distance (km) Brightness Sun altitude
Rises 16:40:55 0° 227° (SW) 2,972 ? 2.5°
Reaches altitude 10° 16:43:27 10° 218° (SW) 2,058 ? 2.0°
Maximum altitude 16:47:49 35° 151° (SSE) 1,044 ? 1.2°
Drops below altitude 10° 16:52:07 10° 85° (E) 2,032 ? 0.5°
Sets 16:54:36 0° 75° (ENE) 2,929 ? 0.0°
